This demonstration page uses our WeatherBlox Daily Observations layout. Learn more.

Left ArrowRight Arrow

39.92423, -83.80882

Hourly Observations for August 19, 2016

Temp ( °F °C ) Dew Point ( °F °C ) Humidity (%) Winds ( mph kmh ) Pressure ( in mb ) Visibility ( mi km ) Precip ( " mm )
12:56 am 00:56 Clear 71 21.7 69 20.6 94 94 SSW 6 9 30.03 1017 7 11.26538 N/A
1:56 am 01:56 Clear with Mist and Fog 70 21.1 69 20.6 97 97 SSW 5 7 30.02 1017 6 9.65604 N/A
2:56 am 02:56 Clear with Mist and Fog 69 20.6 68 20 96 96 SW 5 7 30.03 1017 4 6.43736 0.02 0.508
3:21 am 03:21 Clear with Mist and Fog 68 20 68 20 100 100 WSW 3 6 30.03 1017 2.5 4.02335 0.01 0.254
3:30 am 03:30 Clear with Mist and Fog 68 20 68 20 100 100 N N/A 30.03 1017 1 1.60934 0.01 0.254
3:35 am 03:35 Clear with Fog 70 21 68 20 94 94 N N/A N/A 0.5 0.80467 0.01 0.254
3:48 am 03:48 Clear with Mist and Fog 70 21 68 20 94 94 undefined N/A 30.03 1017 1 1.60934 0.01 0.254
3:51 am 03:51 Clear with Mist and Fog 68 20 68 20 100 100 N N/A 30.03 1017 2 3.21868 0.01 0.254
3:56 am 03:56 Clear with Mist and Fog 69 20.6 68 20 96 96 S 3 6 30.02 1017 3 4.82802 0.02 0.508
4:15 am 04:15 Partly Cloudy with Mist and Fog 70 21 68 20 94 94 N N/A 30.03 1017 1.75 2.816345 N/A
4:33 am 04:33 Mostly Cloudy with Mist and Fog 70 21 68 20 94 94 SSW 5 7 30 1016 2.5 4.02335 N/A
5:08 am 05:08 Clear with Mist and Fog 68 20 68 20 100 100 undefined N/A 30.03 1017 1.5 2.41401 N/A
5:15 am 05:15 Mostly Cloudy with Mist and Fog 68 20 68 20 100 100 WSW 5 7 30.03 1017 0.75 1.207005 N/A
5:21 am 05:21 Mostly Cloudy with Fog 68 20 68 20 100 100 SW 3 6 30.03 1017 0.25 0.402335 N/A
5:43 am 05:43 Cloudy with Fog 68 20 68 20 100 100 undefined N/A 30 1016 0.5 0.80467 N/A
5:56 am 05:56 Mostly Cloudy with Fog 68 20 68 20 100 100 undefined N/A N/A 0.5 0.80467 N/A
6:09 am 06:09 Mostly Cloudy with Fog 68 20 68 20 100 100 N N/A N/A 0.25 0.402335 N/A
6:17 am 06:17 Cloudy with Fog 66 19 66 19 100 100 N N/A 30 1016 0.5 0.80467 N/A
6:30 am 06:30 Cloudy with Fog 68 20 68 20 100 100 SSW 3 6 30 1016 0.25 0.402335 N/A
6:56 am 06:56 Cloudy with Fog 69 20.6 69 20.6 100 100 SW 5 7 30.01 1016 5 8.0467 N/A
7:56 am 07:56 Cloudy with Fog 70 21.1 70 21.1 100 100 SW 3 6 30 1016 0.25 0.402335 N/A
8:56 am 08:56 Cloudy with Fog 71 21.7 71 21.7 100 100 SSW 5 7 30 1016 0.5 0.80467 N/A
9:12 am 09:12 Cloudy with Mist and Fog 72 22 72 22 100 100 SW 5 7 30 1016 1 1.60934 N/A
9:24 am 09:24 Cloudy with Mist and Fog 72 22 72 22 100 100 SW 3 6 30 1016 0.75 1.207005 N/A
9:29 am 09:29 Cloudy with Mist and Fog 72 22 72 22 100 100 S 3 6 30 1016 1.25 2.011675 N/A
9:56 am 09:56 Cloudy with Mist and Fog 72 22.2 71 21.7 97 97 SSW 5 7 29.99 1016 2.5 4.02335 N/A
10:10 am 10:10 Cloudy with Mist and Fog 73 23 72 22 94 94 SW 7 11 30 1016 3 4.82802 N/A
10:33 am 10:33 Cloudy with Mist and Fog 73 23 72 22 94 94 WSW 6 9 30 1016 4 6.43736 0.01 0.254
10:56 am 10:56 Cloudy with Mist and Fog 74 23.3 72 22.2 94 94 undefined N/A N/A 5 8.0467 0.01 0.254
11:09 am 11:09 Cloudy with Mist and Fog 75 24 72 22 89 89 SW 8 13 30 1016 6 9.65604 N/A
11:19 am 11:19 Partly Cloudy 75 24 73 23 94 94 WSW 8 13 30 1016 7 11.26538 N/A
11:29 am 11:29 Mostly Cloudy 77 25 72 22 83 83 WSW 9 15 30 1016 8 12.87472 N/A
11:37 am 11:37 Partly Cloudy 79 26 72 22 79 79 undefined N/A N/A 8 12.87472 N/A
11:49 am 11:49 Mostly Cloudy 77 25 72 22 83 83 W 12 19 30 1016 7 11.26538 N/A
11:56 am 11:56 Mostly Cloudy with Haze 77 25 72 22.2 85 85 W 9 15 30.01 1016 6 9.65604 N/A
12:27 pm 12:27 Mostly Sunny 79 26 72 22 79 79 SW 9 15 29.97 1015 8 12.87472 N/A
12:56 pm 12:56 Partly Cloudy 80 26.7 72 22.2 76 76 W 9 15 N/A 8 12.87472 N/A
1:56 pm 13:56 Partly Cloudy 81 27.2 71 21.7 72 72 W 8 13 N/A 10 16.0934 0.03 0.762
2:56 pm 14:56 Sunny 82 27.8 70 21.1 67 67 SW 8 13 29.97 1015 10 16.0934 N/A
3:56 pm 15:56 Partly Cloudy 83 28.3 70 21.1 65 65 S 3 6 N/A 10 16.0934 N/A
4:21 pm 16:21 Partly Cloudy with Nearby Thunderstorms 82 28 72 22 70 70 SW 7 11 29.91 1013 10 16.0934 N/A
4:39 pm 16:39 Partly Cloudy 82 28 72 22 70 70 SSW 5 7 N/A 10 16.0934 N/A
4:56 pm 16:56 Mostly Sunny 83 28.3 71 21.7 67 67 SSW 6 9 29.92 1013 10 16.0934 N/A
5:56 pm 17:56 Cloudy with Heavy Rain 79 26.1 72 22.2 79 79 SE 9 15 29.94 1014 4 6.43736 0.05 1.27
6:56 pm 18:56 Mostly Cloudy with Nearby Thunderstorms 75 23.9 70 21.1 84 84 NW 13 20 29.93 1014 10 16.0934 0.03 0.762
7:56 pm 19:56 Sunny 71 21.7 67 19.4 87 87 SSE 5 7 29.91 1013 10 16.0934 0.2 5.08
8:56 pm 20:56 Clear 69 20.6 67 19.4 93 93 S 6 9 29.9 1013 10 16.0934 N/A
9:56 pm 21:56 Clear 68 20 67 19.4 96 96 undefined N/A 29.91 1013 9 14.48406 N/A
10:56 pm 22:56 Clear 67 19.4 67 19.4 100 100 E 3 6 29.92 1013 7 11.26538 N/A
11:56 pm 23:56 Clear with Mist and Fog 67 19.4 67 19.4 100 100 undefined N/A 29.93 1014 0.75 1.207005 N/A

Powered by AerisWeather